EUTELSAT 5 WEST B

Last updated on Sun Oct 06 2024 00:02:41 GMT+0000 (Coordinated Universal Time)

1 44624U 19067A 24279.32538743 -.00000032 00000+0 00000+0 0 9996 2 44624 0.0633 11.5011 0003027 181.8411 293.3089 1.00271574 18234
UTC large
Height (km)
Speed (km/s)
/
Latitude / Longitude
Inclination (degrees)
Orbital Period (minutes)
Azimuth
Elevation
Range (km)
Doppler Factor

Next 0 passes for location: London (51.5072 / 0.1276)

Sorry there are no passes over London.